Location: Perryvale
(54.4667°N, 113.3833°W)
Time: 23:00:48
(UTC+00:00)

Vanguard 1 Rocket - Pass Details

Date: 27 May 2024
Orbit: 649 x 4221 km, 34.3° (Epoch: 13 June)

Event Time Altitude Azimuth Distance (km) Brightness Sun altitude
Rises 19:54:30 0° 265° (W) 7,377 12.1 56.7°
Reaches altitude 10° 20:01:34 10° 254° (WSW) 5,693 11.8 56.5°
Maximum altitude 20:11:56 22° 212° (SSW) 3,616 11.5 56.1°
Drops below altitude 10° 20:18:49 10° 167° (SSE) 3,611 11.1 55.8°
Sets 20:22:01 0° 151° (SSE) 4,169 11.1 55.6°
